#timestamp,LO_Frequency,Hit,StdDev 
1560182415.3,286046999.2,P
1560182435.1,286046996.9,P
1560182436.0,286046996.9,N
1560182455.8,286046998.9,N
1560182475.7,286046997.2,N
1560182495.5,286047000.7,N
1560182515.3,286046999.9,N
1560182535.2,286046999.7,N
1560182555.0,286047001.4,N
1560182555.9,286047001.4,N
1560182575.8,286047001.9,N
1560182595.6,286047002.2,N
1560182615.4,286047002.7,N
1560182635.3,286047002.7,N
1560182655.1,286047000.3,N
1560182675.8,286046999.9,N
1560182695.7,286046998.3,N
1560182715.5,286047000.6,N
1560182735.3,286047000.3,N
1560182755.2,286047002.7,N
1560182775.0,286047002.5,N
1560182775.9,286047002.5,N
1560182795.8,286047001.3,N
1560182815.6,286047006.4,Y
1560182835.4,286047005.0,P
1560182855.3,286047005.8,N
1560182875.1,286047004.9,N
1560182895.9,286047005.4,N
1560182915.7,286047005.1,N
1560182935.5,286047004.6,N
1560182955.4,286047004.9,N
1560182975.2,286047004.6,N
1560182995.1,286047006.9,Y
1560182996.0,286047006.9,P
1560183015.8,286047002.8,N
1560183035.6,286047001.9,N
1560183055.5,286047005.7,N
1560183075.3,286047006.4,Y
1560183095.1,286047006.0,P
1560183115.9,286047006.3,P
1560183135.7,286047006.7,P
1560183155.6,286047008.9,Y
1560183175.4,286047001.4,P
1560183195.2,286047004.3,N
1560183215.1,286047004.4,N
1560183216.0,286047004.4,N
1560183235.8,286047002.1,N
1560183255.6,286047002.7,N
1560183275.5,286047002.3,N
1560183295.3,286047003.4,N
1560183315.2,286046999.8,N
1560183335.9,286047000.5,N
1560183355.7,286047000.8,N
1560183375.6,286047003.5,N
1560183395.4,286047002.4,N
1560183415.2,286047000.7,N
1560183435.1,286046998.6,N
1560183436.0,286046998.6,N
1560183455.8,286046997.2,N
1560183475.7,286046997.4,N
1560183495.5,286046995.5,N
1560183515.3,286046995.6,N
1560183535.2,286046996.1,N
1560183555.9,286046995.7,N
1560183575.7,286046994.1,N
1560183595.6,286046995.7,N
1560183615.4,286046994.6,N
1560183635.2,286046990.6,N
1560183655.1,286046988.6,N
1560183656.0,286046988.6,N
1560183675.8,286046992.8,N
1560183695.7,286046989.0,N
1560183715.5,286046991.6,N
1560183735.3,286046991.5,N
1560183755.2,286046991.5,N
1560183775.0,286046991.4,N
1560183775.9,286046991.4,N
1560183795.8,286046990.7,N
1560183815.6,286046991.5,N
1560183835.4,286046989.0,N
1560183855.3,286046989.0,N
1560183875.1,286046988.6,N
1560183895.8,286046991.4,N
1560183915.7,286046991.9,N
1560183935.5,286046991.9,N
1560183955.4,286046994.5,N
1560183975.2,286046993.1,N
1560183995.0,286046992.5,N
1560183995.9,286046992.5,N
1560184015.8,286046990.5,Y
1560184035.6,286046998.6,P
1560184055.4,286046996.6,N
1560184075.3,286046997.2,N
1560184095.1,286046999.1,N
1560184115.9,286047001.2,N
1560184135.7,286047000.8,N
1560184155.5,286047000.3,N
1560184175.4,286047002.2,N
1560184195.2,286047002.7,N
1560184215.0,286047000.8,N
1560184215.9,286047000.8,N
1560184235.8,286047001.8,N
1560184255.6,286047004.4,N
1560184275.5,286047004.4,N
1560184295.3,286047001.9,N
1560184315.1,286047000.2,N
1560184335.9,286046998.1,N
1560184355.7,286046997.0,N
1560184375.6,286046996.5,N
1560184395.4,286047000.8,N
1560184415.2,286046999.3,N
1560184435.1,286046997.0,N
1560184436.0,286046997.0,N
1560184455.8,286046999.3,N
1560184475.6,286046999.0,N
1560184495.5,286046996.7,N
1560184515.3,286046997.0,N
1560184535.2,286046996.7,N
1560184555.9,286046996.6,N
1560184575.7,286046996.7,N
1560184595.6,286046999.2,N
1560184615.4,286047001.0,N
1560184635.2,286047008.0,Y
1560184655.1,286047011.5,P
1560184656.0,286047011.5,N
1560184675.8,286047013.3,N
1560184725.7,286047010.5,E
1560184735.6,286047003.3,N
1560184755.4,286046999.5,P
1560184775.3,286046998.6,N
1560184795.1,286047001.5,N
1560184815.9,286047002.3,N
1560184835.7,286047003.7,N
1560184855.5,286047004.1,N
1560184875.4,286047000.2,N
1560184895.2,286046998.4,N
1560184915.0,286046996.9,N
1560184915.9,286046996.9,N
1560184935.8,286046999.2,N
1560184955.6,286046996.7,N
1560184975.5,286046997.8,N
1560184995.3,286046993.4,N
1560185015.1,286046991.8,N
1560185035.9,286046991.8,N
1560185055.7,286046991.8,N
1560185075.5,286046991.7,N
1560185095.4,286046992.2,N
1560185115.2,286046991.8,N
1560185135.0,286046994.6,N
1560185136.0,286046994.6,N
1560185155.8,286046994.7,N
1560185175.6,286046992.1,N
1560185195.5,286046994.4,N
1560185215.3,286046992.7,N
1560185235.1,286046994.1,N
1560185255.9,286046994.3,N
1560185275.7,286046994.5,N
1560185295.5,286046994.1,N
1560185315.4,286046994.8,N
1560185335.2,286046994.2,N
1560185355.1,286046996.3,N
1560185356.0,286046996.3,N
1560185375.8,286046993.9,N
1560185395.6,286046994.3,N
1560185415.5,286046994.0,N
1560185435.3,286046993.9,Y
1560185455.1,286046998.3,P
1560185475.9,286047000.5,N
1560185495.7,286046998.5,N
1560185515.6,286046998.3,N
1560185535.4,286047000.9,N
1560185555.2,286046999.9,N
1560185575.1,286047000.6,N
1560185576.0,286047000.6,N
1560185595.8,286047000.5,N
1560185615.6,286047000.8,N
1560185635.5,286047000.9,N
1560185655.3,286047000.4,N
1560185675.2,286046998.7,N
1560185695.9,286047000.2,N
1560185715.7,286046999.9,N
1560185735.6,286047002.3,N
1560185755.4,286047000.2,N
1560185775.2,286047000.4,N
1560185795.1,286046999.8,N
1560185796.0,286046999.8,N
1560185815.8,286046999.8,N
1560185835.7,286046999.7,N
1560185855.5,286047000.3,N
1560185905.4,286047001.0,E
1560185915.3,286046998.1,N
1560185935.1,286046999.2,P
1560185955.8,286046997.2,P
1560185975.7,286046996.8,Y
1560185995.5,286047001.2,P
